Tracking 27112 objects as of 27-Mar-2023
HD Live streaming from Space Station
objects crossing your sky now

YAOGAN 30 DEB

Track YAOGAN 30 DEB now!
10-day predictions


NORAD ID: 42677
Int'l Code: 2016-029C
Perigee: 639.7 km
Apogee: 1,004.5 km
Inclination: 97.9 °
Period: 101.2 minutes
Semi major axis: 7193 km
RCS: Unknown
Launch date: May 15, 2016
Source: People's Republic of China (PRC)
Launch site: Jiuquan Satellite Launch Center, China (JSC)

Note: This is SATELLITE DEBRIS
Your satellite tracking list
Your tracking list is empty




NASA's NSSDC Master Catalog

Two Line Element Set (TLE):
1 42677U 16029C   23084.02859724  .00003540  00000-0  11409-2 0  9997
2 42677  97.9322 292.8087 0253565 336.8107  22.1791 14.23077705343503
Source of the keplerian elements: AFSPC